• In India
  • List of Countries
  • For 7 days
  • Water Temperature
  • Satellite Maps
  • Weather Map
  • Weather Widgets
  • user-avatar
    Login

    Hourly Weather Perth

    Today, 15 December, Saturday

    Time Temperature Precipitation Wind Pressure Humidity
    00:00 +29°C° 0 mm 4 mps 751 mmHg 35%
    01:00 +28°C° 0 mm 4 mps 751 mmHg 36%
    02:00 +26°C° 0 mm 4 mps 751 mmHg 46%
    03:00 +26°C° 0 mm 3 mps 751 mmHg 49%
    04:00 +25°C° 0 mm 3 mps 751 mmHg 51%
    05:00 +24°C° 0 mm 3 mps 751 mmHg 53%
    06:00 +26°C° 0 mm 3 mps 751 mmHg 48%
    07:00 +28°C° 0 mm 4 mps 751 mmHg 43%
    08:00 +28°C° 0 mm 4 mps 752 mmHg 47%
    09:00 +30°C° 0 mm 4 mps 751 mmHg 41%
    10:00 +32°C° 0 mm 4 mps 751 mmHg 34%
    11:00 +34°C° 0 mm 4 mps 750 mmHg 28%
    12:00 +35°C° 0.1 mm 5 mps 749 mmHg 29%
    13:00 +35°C° 0.1 mm 6 mps 749 mmHg 29%
    14:00 +36°C° 0.1 mm 7 mps 748 mmHg 30%
    15:00 +34°C° 0.2 mm 7 mps 748 mmHg 36%
    16:00 +32°C° 0.2 mm 7 mps 748 mmHg 41%
    17:00 +29°C° 0.2 mm 8 mps 748 mmHg 47%
    18:00 +28°C° 0.1 mm 7 mps 749 mmHg 52%
    19:00 +26°C° 0.1 mm 7 mps 749 mmHg 56%
    20:00 +24°C° 0.1 mm 7 mps 750 mmHg 61%
    21:00 +23°C° 0 mm 6 mps 750 mmHg 63%
    22:00 +23°C° 0 mm 6 mps 750 mmHg 64%
    23:00 +22°C° 0 mm 6 mps 750 mmHg 66%

    Tomorrow, 16 December, Sunday

    Time Temperature Precipitation Wind Pressure Humidity
    00:00 +21°C° 0 mm 6 mps 750 mmHg 65%
    01:00 +21°C° 0 mm 6 mps 750 mmHg 65%
    02:00 +20°C° 0 mm 5 mps 750 mmHg 64%
    03:00 +20°C° 0 mm 5 mps 750 mmHg 63%
    04:00 +20°C° 0 mm 5 mps 750 mmHg 61%
    05:00 +19°C° 0 mm 5 mps 750 mmHg 60%
    06:00 +21°C° 0 mm 5 mps 750 mmHg 55%
    07:00 +22°C° 0 mm 5 mps 750 mmHg 51%
    08:00 +25°C° 0 mm 4 mps 750 mmHg 46%
    09:00 +26°C° 0 mm 5 mps 750 mmHg 43%
    10:00 +28°C° 0 mm 5 mps 750 mmHg 39%
    11:00 +30°C° 0 mm 5 mps 750 mmHg 35%
    12:00 +30°C° 0 mm 6 mps 749 mmHg 36%
    13:00 +30°C° 0 mm 6 mps 749 mmHg 36%
    14:00 +30°C° 0 mm 7 mps 749 mmHg 37%
    15:00 +30°C° 0.1 mm 7 mps 749 mmHg 38%
    16:00 +29°C° 0.1 mm 7 mps 749 mmHg 40%
    17:00 +29°C° 0.1 mm 8 mps 749 mmHg 41%
    18:00 +28°C° 0.2 mm 7 mps 750 mmHg 44%
    19:00 +26°C° 0.2 mm 7 mps 750 mmHg 46%
    20:00 +23°C° 0.2 mm 7 mps 751 mmHg 49%
    21:00 +22°C° 0 mm 7 mps 752 mmHg 52%
    22:00 +21°C° 0 mm 7 mps 753 mmHg 55%
    23:00 +20°C° 0 mm 7 mps 754 mmHg 58%

    Day after tomorrow, 17 December, Monday

    Time Temperature Precipitation Wind Pressure Humidity
    00:00 +20°C° 0 mm 7 mps 754 mmHg 60%
    01:00 +18°C° 0 mm 7 mps 754 mmHg 62%
    02:00 +19°C° 0 mm 6 mps 754 mmHg 63%
    03:00 +19°C° 0 mm 6 mps 754 mmHg 65%
    04:00 +17°C° 0 mm 6 mps 754 mmHg 66%
    05:00 +17°C° 0 mm 6 mps 755 mmHg 67%
    06:00 +19°C° 0 mm 6 mps 755 mmHg 66%
    07:00 +19°C° 0 mm 6 mps 756 mmHg 64%
    08:00 +20°C° 0 mm 6 mps 756 mmHg 63%
    09:00 +21°C° 0 mm 6 mps 756 mmHg 59%
    10:00 +22°C° 0 mm 6 mps 757 mmHg 54%
    11:00 +24°C° 0 mm 6 mps 757 mmHg 49%
    12:00 +26°C° 0 mm 6 mps 757 mmHg 47%
    13:00 +26°C° 0 mm 6 mps 757 mmHg 45%
    14:00 +27°C° 0 mm 6 mps 756 mmHg 43%
    15:00 +27°C° 0 mm 6 mps 756 mmHg 44%
    16:00 +26°C° 0 mm 7 mps 756 mmHg 45%
    17:00 +26°C° 0 mm 7 mps 756 mmHg 45%
    18:00 +24°C° 0 mm 6 mps 756 mmHg 50%
    19:00 +23°C° 0 mm 6 mps 757 mmHg 54%
    20:00 +21°C° 0 mm 6 mps 757 mmHg 58%
    21:00 +21°C° 0 mm 5 mps 758 mmHg 61%
    22:00 +20°C° 0 mm 5 mps 758 mmHg 64%
    23:00 +19°C° 0 mm 5 mps 758 mmHg 67%

    18 December, Tuesday

    Time Temperature Precipitation Wind Pressure Humidity
    00:00 +17°C° 0 mm 5 mps 758 mmHg 71%
    01:00 +18°C° 0 mm 4 mps 758 mmHg 74%
    02:00 +17°C° 0 mm 4 mps 758 mmHg 77%
    03:00 +15°C° 0 mm 4 mps 758 mmHg 80%
    04:00 +15°C° 0 mm 4 mps 758 mmHg 82%
    05:00 +14°C° 0 mm 4 mps 759 mmHg 85%
    06:00 +17°C° 0 mm 4 mps 759 mmHg 77%
    07:00 +19°C° 0 mm 4 mps 760 mmHg 68%
    08:00 +20°C° 0 mm 4 mps 760 mmHg 60%
    09:00 +22°C° 0 mm 4 mps 760 mmHg 53%
    10:00 +25°C° 0 mm 4 mps 760 mmHg 46%
    11:00 +27°C° 0 mm 4 mps 760 mmHg 39%
    12:00 +28°C° 0 mm 5 mps 760 mmHg 38%
    13:00 +28°C° 0 mm 5 mps 759 mmHg 37%
    14:00 +29°C° 0 mm 6 mps 759 mmHg 36%
    15:00 +28°C° 0 mm 6 mps 759 mmHg 39%
    16:00 +28°C° 0 mm 7 mps 759 mmHg 41%
    17:00 +27°C° 0 mm 7 mps 759 mmHg 44%
    18:00 +26°C° 0 mm 6 mps 759 mmHg 48%
    19:00 +23°C° 0 mm 6 mps 760 mmHg 52%
    20:00 +21°C° 0 mm 6 mps 760 mmHg 57%
    21:00 +21°C° 0 mm 5 mps 761 mmHg 58%
    22:00 +20°C° 0 mm 5 mps 761 mmHg 58%
    23:00 +20°C° 0 mm 4 mps 761 mmHg 59%

    19 December, Wednesday

    Time Temperature Precipitation Wind Pressure Humidity
    00:00 +19°C° 0 mm 4 mps 761 mmHg 60%
    01:00 +19°C° 0 mm 4 mps 761 mmHg 61%
    02:00 +19°C° 0 mm 4 mps 761 mmHg 63%
    03:00 +18°C° 0 mm 4 mps 761 mmHg 65%
    04:00 +18°C° 0 mm 4 mps 761 mmHg 67%
    05:00 +17°C° 0 mm 4 mps 761 mmHg 69%
    06:00 +19°C° 0 mm 4 mps 762 mmHg 64%
    07:00 +20°C° 0 mm 4 mps 762 mmHg 58%
    08:00 +21°C° 0 mm 4 mps 763 mmHg 52%
    09:00 +23°C° 0 mm 4 mps 763 mmHg 44%
    10:00 +27°C° 0 mm 3 mps 762 mmHg 37%
    11:00 +29°C° 0 mm 3 mps 762 mmHg 29%
    12:00 +30°C° 0 mm 4 mps 761 mmHg 27%
    13:00 +32°C° 0 mm 4 mps 761 mmHg 25%
    14:00 +33°C° 0 mm 5 mps 760 mmHg 24%
    15:00 +32°C° 0 mm 5 mps 760 mmHg 26%
    16:00 +30°C° 0 mm 6 mps 760 mmHg 28%
    17:00 +30°C° 0 mm 6 mps 760 mmHg 30%
    18:00 +28°C° 0 mm 6 mps 760 mmHg 38%
    19:00 +25°C° 0 mm 5 mps 761 mmHg 45%
    20:00 +22°C° 0 mm 5 mps 761 mmHg 53%
    21:00 +22°C° 0 mm 5 mps 761 mmHg 53%
    22:00 +21°C° 0 mm 4 mps 761 mmHg 54%
    23:00 +21°C° 0 mm 4 mps 761 mmHg 54%

    20 December, Thursday

    Time Temperature Precipitation Wind Pressure Humidity
    00:00 +21°C° 0 mm 4 mps 761 mmHg 52%
    01:00 +21°C° 0 mm 5 mps 761 mmHg 51%
    02:00 +21°C° 0 mm 5 mps 760 mmHg 49%
    03:00 +20°C° 0 mm 5 mps 760 mmHg 52%
    04:00 +20°C° 0 mm 5 mps 760 mmHg 54%
    05:00 +19°C° 0 mm 5 mps 761 mmHg 57%
    06:00 +21°C° 0 mm 5 mps 761 mmHg 53%
    07:00 +22°C° 0 mm 5 mps 761 mmHg 49%
    08:00 +23°C° 0 mm 5 mps 762 mmHg 45%
    09:00 +27°C° 0 mm 5 mps 761 mmHg 40%
    10:00 +29°C° 0 mm 5 mps 761 mmHg 34%
    11:00 +32°C° 0 mm 4 mps 761 mmHg 28%
    12:00 +33°C° 0 mm 4 mps 760 mmHg 26%
    13:00 +34°C° 0 mm 4 mps 760 mmHg 23%
    14:00 +35°C° 0 mm 4 mps 759 mmHg 21%
    15:00 +35°C° 0 mm 5 mps 759 mmHg 22%
    16:00 +35°C° 0 mm 5 mps 759 mmHg 22%
    17:00 +34°C° 0 mm 6 mps 758 mmHg 23%
    18:00 +33°C° 0 mm 6 mps 759 mmHg 25%
    19:00 +30°C° 0 mm 5 mps 759 mmHg 27%
    20:00 +28°C° 0 mm 5 mps 759 mmHg 30%
    21:00 +27°C° 0 mm 6 mps 759 mmHg 34%
    22:00 +26°C° 0 mm 7 mps 759 mmHg 38%
    23:00 +24°C° 0 mm 8 mps 760 mmHg 42%
    Show more